Regional Weather Roundup
Issued by NWS

Home | Current Version | Previous Version | Graphics & Text | Print | Product List | Glossary On
Versions: 1 2 3 4 5 6 7 8 9 10 11 12 13 14 15 16 17 18 19 20 21 22 23 24 25 26 27
000
ASUS45 KCYS 220610
RWRWY

WYOMING REGIONAL WEATHER ROUNDUP
NATIONAL WEATHER SERVICE CHEYENNE WY
1200 AM MDT TUE APR 22 2014

NOTE:  "FAIR" INDICATES FEW OR NO CLOUDS BELOW 12,000 FEET
WITH NO SIGNIFICANT WEATHER AND/OR OBSTRUCTIONS TO VISIBILITY.

WYZ001-220700-
YELLOWSTONE NATIONAL PARK

CITY           SKY/WX    TMP DP  RH WIND       PRES   REMARKS
LK YELLOWSTONE   N/A     33  26  75 CALM      30.10F
6HR MIN TEMP:  33; 6HR MAX TEMP:  46;

W YELLOWSTONE  NOT AVBL

$$
WYZ002>013-054>058-071-098>099-220700-
NORTHERN WYOMING

CITY           SKY/WX    TMP DP  RH WIND       PRES   REMARKS
JACKSON        CLOUDY    43  32  65 NE3       30.03F
CODY           PTCLDY    45  28  53 S6        29.97F
GREYBULL       MOCLDY    50  30  46 W5        29.93F
6HR MIN TEMP:  50; 6HR MAX TEMP:  68;

WORLAND        MOCLDY    48  34  58 S8        29.95F
6HR MIN TEMP:  48; 6HR MAX TEMP:  67;

SHERIDAN         N/A     37  27  65 NE5         N/A  WCI  34
6HR MIN TEMP:  45; 6HR MAX TEMP:  67;

BUFFALO        MOCLDY    53  27  36 S3        30.02F
6HR MIN TEMP:  48; 6HR MAX TEMP:  65;

GILLETTE       PTCLDY    51  32  48 S14       30.04F
6HR MIN TEMP:  46; 6HR MAX TEMP:  66;

HULETT         FAIR      52  28  40 CALM      30.05
NEWCASTLE      FAIR      54  25  32 E15G24    30.07

$$
WYZ014>020-022>026-101>103-220700-
CENTRAL WYOMING

CITY           SKY/WX    TMP DP  RH WIND       PRES   REMARKS
BIG PINEY      CLOUDY    44  27  51 CALM      30.09F
6HR MIN TEMP:  42; 6HR MAX TEMP:  63;

PINEDALE       CLOUDY    43  30  61 CALM      30.10F
DUBOIS         MOCLDY    39  19  45 W9        30.08F WCI  33
LANDER         PTCLDY    49  27  42 CALM      29.99F
6HR MIN TEMP:  48; 6HR MAX TEMP:  66;

RIVERTON       MOCLDY    46  17  31 NW6       30.01F
6HR MIN TEMP:  44; 6HR MAX TEMP:  65;

CASPER         CLEAR     39  31  72 CALM      30.04F
6HR MIN TEMP:  37; 6HR MAX TEMP:  64;

DOUGLAS        CLEAR     47  35  63 SE14      30.06F
6HR MIN TEMP:  46; 6HR MAX TEMP:  64;


$$
WYZ021-027>030-104>119-220700-
SOUTHERN WYOMING

CITY           SKY/WX    TMP DP  RH WIND       PRES   REMARKS
EVANSTON         N/A     52  25  35 SE7       30.06F
6HR MIN TEMP:  50; 6HR MAX TEMP:  64;

KEMMERER       CLOUDY    46  28  49 CALM      30.08F
FORT BRIDGER   CLOUDY    52  25  34 S12       30.10F
ROCK SPRINGS   PTCLDY    50  23  34 S8        30.08F
6HR MIN TEMP:  50; 6HR MAX TEMP:  65;

DIXON          FAIR      44  29  56 CALM      30.15F
RAWLINS        PTCLDY    37  14  38 CALM      30.11F
6HR MIN TEMP:  36; 6HR MAX TEMP:  64;

SARATOGA       FAIR      41  27  56 S6        30.14F
LARAMIE        PTCLDY    42  31  64 S12       30.15F
6HR MIN TEMP:  40; 6HR MAX TEMP:  57;

CHEYENNE       PTCLDY    48  31  51 S12G20    30.14F
6HR MIN TEMP:  48; 6HR MAX TEMP:  60;

TORRINGTON     CLEAR     50  32  50 SE10      30.07F
6HR MIN TEMP:  50; 6HR MAX TEMP:  68;

PINE BLUFFS    FAIR      52  30  43 SE21G26   30.12F

$$



USA.gov is the U.S. government's official web portal to all federal, state and local government web resources and services.